Great Bend, KS

10:28 PM CDT on May 24, 2018 (GMT -0500)
Great Bend Municipal

Weather History for KGBD - June, 2013

Change the Weather History Date:

Monday, June 17, 2013

  Actual Average Record
Temperature  
Mean Temperature 73 °F -  
Max Temperature 84 °F 89 °F 104 °F (1956)
Min Temperature 62 °F 63 °F 44 °F (1999)
Cooling Degree Days 8    
Growing Degree Days 23 (Base 50)    
Moisture  
Dew Point 61 °F    
Average Humidity 67    
Maximum Humidity 88    
Minimum Humidity 45    
Precipitation  
Precipitation 0.62 in - - ()
Sea Level Pressure  
Sea Level Pressure 30.00 in    
Wind  
Wind Speed 14 mph (NE)    
Max Wind Speed 29 mph    
Max Gust Speed 39 mph    
Visibility 10 miles    
Events Thunderstorm    
Averages and records for this station are not official NWS values.
T = Trace of Precipitation, MM = Missing Value Source: NWS Daily Summary

Daily Weather History Graph

Daily Weather History Graph

Search for Another Location

Airport or City:

Astronomy

Jun. 17, 2013 Rise Set
Actual Time 6:11 AM CDT 9:01 PM CDT
Civil Twilight 5:39 AM CDT 9:33 PM CDT
Nautical Twilight 4:59 AM CDT 10:13 PM CDT
Astronomical Twilight 4:14 AM CDT 10:58 PM CDT
Moon 2:45 PM CDT (6/17) 1:43 AM CDT (6/17)
Length of Visible Light 15h 53m
Length of Day
14h 50m
First Quarter, 60% of the Moon is Illuminated
Jun 17
First Quarter
Jun 23
Full
Jun 29
Last Quarter
Jul 8
New
Jul 15
First Quarter

Hourly Weather History & Observations

Time (CDT) Temp. Heat Index Dew Point Humidity Pressure Visibility Wind Dir Wind Speed Gust Speed Precip Events Conditions
12:15 AM 62.6 °F - 59.0 °F 88% 30.08 in 5.0 mi NE 24.2 mph 31.1 mph 0.37 in Thunderstorm Thunderstorm
12:35 AM 62.6 °F - 59.0 °F 88% 30.08 in 10.0 mi NE 20.7 mph 27.6 mph 0.42 in   Overcast
12:55 AM 62.6 °F - 59.0 °F 88% 30.05 in 9.0 mi NE 21.9 mph 26.5 mph 0.47 in   Overcast
1:15 AM 62.6 °F - 59.0 °F 88% 30.02 in 10.0 mi NE 23.0 mph 32.2 mph 0.07 in   Overcast
1:35 AM 62.6 °F - 59.0 °F 88% 29.98 in 10.0 mi ENE 24.2 mph 32.2 mph 0.13 in   Overcast
1:55 AM 62.6 °F - 57.2 °F 82% 29.93 in 10.0 mi ENE 28.8 mph 39.1 mph 0.15 in   Mostly Cloudy
2:15 AM 64.4 °F - 59.0 °F 83% 29.90 in 10.0 mi ENE 20.7 mph 28.8 mph N/A   Partly Cloudy
2:35 AM 64.4 °F - 57.2 °F 77% 29.83 in 10.0 mi ENE 27.6 mph 32.2 mph N/A   Partly Cloudy
2:55 AM 66.2 °F - 57.2 °F 73% 29.85 in 10.0 mi ENE 11.5 mph 32.2 mph N/A   Clear
3:15 AM 66.2 °F - 57.2 °F 73% 29.87 in 10.0 mi East 12.7 mph - N/A   Clear
3:35 AM 66.2 °F - 57.2 °F 73% 29.90 in 10.0 mi East 9.2 mph - N/A   Clear
3:55 AM 66.2 °F - 57.2 °F 73% 29.92 in 10.0 mi Calm Calm - N/A   Clear
4:15 AM 64.4 °F - 57.2 °F 77% 29.94 in 10.0 mi Calm Calm - N/A   Clear
4:35 AM 66.2 °F - 57.2 °F 73% 29.94 in 10.0 mi ESE 9.2 mph - N/A   Clear
4:55 AM 66.2 °F - 57.2 °F 73% 29.96 in 10.0 mi WNW 5.8 mph - N/A   Clear
5:15 AM 64.4 °F - 57.2 °F 77% 29.96 in 10.0 mi WNW 6.9 mph - N/A   Clear
5:35 AM 62.6 °F - 57.2 °F 82% 29.97 in 10.0 mi WNW 10.4 mph - N/A   Clear
5:55 AM 62.6 °F - 57.2 °F 82% 29.99 in 10.0 mi NW 8.1 mph - N/A   Clear
6:15 AM 62.6 °F - 57.2 °F 82% 30.00 in 10.0 mi NNW 8.1 mph - N/A   Clear
6:35 AM 62.6 °F - 57.2 °F 82% 30.00 in 10.0 mi NW 9.2 mph - N/A   Clear
6:55 AM 62.6 °F - 57.2 °F 82% 30.01 in 10.0 mi North 9.2 mph - N/A   Clear
7:15 AM 62.6 °F - 57.2 °F 82% 30.01 in 10.0 mi NNW 12.7 mph - N/A   Clear
7:35 AM 62.6 °F - 57.2 °F 82% 30.00 in 10.0 mi NW 11.5 mph - N/A   Clear
7:55 AM 64.4 °F - 59.0 °F 83% 30.01 in 10.0 mi NNW 10.4 mph - N/A   Clear
8:15 AM 64.4 °F - 59.0 °F 83% 30.02 in 10.0 mi NNW 11.5 mph - N/A   Clear
8:35 AM 66.2 °F - 60.8 °F 83% 30.03 in 10.0 mi NNW 12.7 mph - N/A   Clear
8:55 AM 66.2 °F - 60.8 °F 83% 30.04 in 10.0 mi NNW 11.5 mph - N/A   Clear
9:15 AM 69.8 °F - 60.8 °F 73% 30.04 in 10.0 mi NNW 12.7 mph - N/A   Clear
9:35 AM 69.8 °F - 60.8 °F 73% 30.05 in 10.0 mi North 17.3 mph - N/A   Clear
9:55 AM 71.6 °F - 60.8 °F 69% 30.06 in 10.0 mi North 17.3 mph 20.7 mph N/A   Mostly Cloudy
10:15 AM 71.6 °F - 60.8 °F 69% 30.06 in 10.0 mi North 16.1 mph - N/A   Overcast
10:35 AM 73.4 °F - 62.6 °F 69% 30.06 in 10.0 mi North 13.8 mph - N/A   Mostly Cloudy
10:55 AM 73.4 °F - 64.4 °F 73% 30.06 in 10.0 mi North 13.8 mph - N/A   Partly Cloudy
11:15 AM 75.2 °F - 64.4 °F 69% 30.05 in 10.0 mi North 10.4 mph 18.4 mph N/A   Clear
11:35 AM 77.0 °F - 64.4 °F 65% 30.05 in 10.0 mi North 10.4 mph 16.1 mph N/A   Partly Cloudy
11:55 AM 78.8 °F - 64.4 °F 61% 30.05 in 10.0 mi NNE 16.1 mph - N/A   Scattered Clouds
12:15 PM 78.8 °F - 64.4 °F 61% 30.04 in 10.0 mi NNE 11.5 mph - N/A   Mostly Cloudy
12:35 PM 78.8 °F - 64.4 °F 61% 30.04 in 10.0 mi NNE 15.0 mph - N/A   Scattered Clouds
12:55 PM 80.6 °F 82.3 °F 64.4 °F 58% 30.04 in 10.0 mi NNE 9.2 mph - N/A   Partly Cloudy
1:15 PM 80.6 °F 82.3 °F 64.4 °F 58% 30.04 in 10.0 mi NNE 13.8 mph - N/A   Mostly Cloudy
1:35 PM 82.4 °F 83.4 °F 62.6 °F 51% 30.03 in 10.0 mi NNE 9.2 mph - N/A   Scattered Clouds
1:55 PM 82.4 °F 83.4 °F 62.6 °F 51% 30.02 in 10.0 mi North 12.7 mph - N/A   Scattered Clouds
2:15 PM 82.4 °F 83.4 °F 62.6 °F 51% 30.02 in 10.0 mi NNE 12.7 mph 16.1 mph N/A   Scattered Clouds
2:35 PM 82.4 °F 82.9 °F 60.8 °F 48% 30.01 in 10.0 mi NNE 12.7 mph 18.4 mph N/A   Scattered Clouds
2:55 PM 82.4 °F 82.9 °F 60.8 °F 48% 30.01 in 10.0 mi NE 12.7 mph 17.3 mph N/A   Scattered Clouds
3:15 PM 82.4 °F 83.4 °F 62.6 °F 51% 30.00 in 10.0 mi NE 9.2 mph 18.4 mph N/A   Scattered Clouds
3:35 PM 84.2 °F 85.0 °F 62.6 °F 48% 30.00 in 10.0 mi NE 9.2 mph 17.3 mph N/A   Partly Cloudy
3:55 PM 84.2 °F 85.0 °F 62.6 °F 48% 30.00 in 10.0 mi NE 13.8 mph 19.6 mph N/A   Partly Cloudy
4:15 PM 84.2 °F 85.0 °F 62.6 °F 48% 29.99 in 10.0 mi NE 12.7 mph 18.4 mph N/A   Scattered Clouds
4:35 PM 82.4 °F 83.4 °F 62.6 °F 51% 29.99 in 10.0 mi NE 13.8 mph 19.6 mph N/A   Scattered Clouds
4:55 PM 84.2 °F 85.0 °F 62.6 °F 48% 29.98 in 10.0 mi NNE 15.0 mph 21.9 mph N/A   Scattered Clouds
5:15 PM 84.2 °F 85.0 °F 62.6 °F 48% 29.98 in 10.0 mi ENE 13.8 mph 19.6 mph N/A   Partly Cloudy
5:35 PM 84.2 °F 84.4 °F 60.8 °F 45% 29.98 in 10.0 mi ENE 11.5 mph 17.3 mph N/A   Partly Cloudy
5:55 PM 84.2 °F 85.0 °F 62.6 °F 48% 29.98 in 10.0 mi ENE 9.2 mph - N/A   Partly Cloudy
6:15 PM 84.2 °F 85.0 °F 62.6 °F 48% 29.97 in 10.0 mi ENE 11.5 mph - N/A   Partly Cloudy
6:35 PM 84.2 °F 85.0 °F 62.6 °F 48% 29.97 in 10.0 mi ENE 11.5 mph 18.4 mph N/A   Scattered Clouds
6:55 PM 82.4 °F 83.4 °F 62.6 °F 51% 29.97 in 10.0 mi ENE 12.7 mph 16.1 mph N/A   Partly Cloudy
7:15 PM 82.4 °F 83.4 °F 62.6 °F 51% 29.98 in 10.0 mi NE 10.4 mph - N/A   Partly Cloudy
7:35 PM 82.4 °F 83.4 °F 62.6 °F 51% 29.99 in 10.0 mi East 9.2 mph - N/A   Scattered Clouds
7:55 PM 80.6 °F 81.8 °F 62.6 °F 54% 29.99 in 10.0 mi East 8.1 mph - N/A   Mostly Cloudy
8:15 PM 80.6 °F 81.8 °F 62.6 °F 54% 29.99 in 10.0 mi East 5.8 mph - N/A   Partly Cloudy
8:35 PM 78.8 °F - 62.6 °F 57% 30.00 in 10.0 mi ESE 4.6 mph - N/A   Clear
8:55 PM 77.0 °F - 62.6 °F 61% 30.00 in 10.0 mi East 4.6 mph - N/A   Clear
9:15 PM 75.2 °F - 62.6 °F 65% 30.01 in 10.0 mi ESE 4.6 mph - N/A   Clear
9:35 PM 75.2 °F - 62.6 °F 65% 30.02 in 10.0 mi Calm Calm - N/A   Clear
9:55 PM 75.2 °F - 62.6 °F 65% 30.02 in 10.0 mi East 3.5 mph - N/A   Clear
10:15 PM 73.4 °F - 62.6 °F 69% 30.02 in 10.0 mi ENE 4.6 mph - N/A   Clear
10:35 PM 73.4 °F - 62.6 °F 69% 30.02 in 10.0 mi East 5.8 mph - N/A   Clear
10:55 PM 73.4 °F - 62.6 °F 69% 30.02 in 10.0 mi ESE 6.9 mph - N/A   Clear
11:15 PM 71.6 °F - 62.6 °F 73% 30.04 in 10.0 mi SE 6.9 mph - N/A   Clear
11:35 PM 69.8 °F - 62.6 °F 78% 30.05 in 10.0 mi SSE 6.9 mph - N/A   Clear
11:55 PM 69.8 °F - 62.6 °F 78% 30.07 in 10.0 mi South 9.2 mph - N/A   Clear